STARLINK-32046 (60198 NORAD) Tracking and Keplerian Element Data

This shows tracking and keplerian element data for the satellite.

Feedback or suggestion? Click here.




ElementValue
Catalog60198
NameSTARLINK-32046
Epoch Orbit1693
Epoch Day286.73216362
Epoch Year2024
RAAN189.1095
Inclination53.1583
Eccentricity0.0001216
Argument of Perigee71.7546
Mean Anonmoly288.3591
Mean Motion15.3966237
Decay Rate0.00031989
L11 60198U 24124R 24286.73216362 .00031989 00000+0 80523-3 0 9999
L22 60198 53.1583 189.1095 0001216 71.7546 288.3591 15.39662370 16931



Live tracking and technical data element details for STARLINK-32046 (NORAD 60198). STARLINK-32046 can be tracked NOW for your location showing map with azimuth and elevation plus other details from your city location.







IsCatalogInMostPopularTable: catalog: 60198, numindb: 10
Update: records affected: 1



GetName: 60198 STARLINK-32046

Hit Count: updated at: Thu, 23 Jan 2025 14:13:14 GMT